Vertical_Velocity
-7 -6 0 -0 0 -1 -0 -1 0 -1 1 6 -1 -0 2 2 -4 2 3 -1 -1 0 -4 1 -2 2 -3 1 -2 -5 0 2 -1 -3 -3 -1 -1 -5
3 3 2 1 -1 -0 -3 -0 2 2 2 4 -1 -0 -2 -2 1 1 1 0 -1 1 -2 -1 -4 -1 0 1 1 -2 -2 -1 2 -2 -2 -3 -3 0
2 -0 1 2 2 1 -0 -0 -2 2 -1 -1 -1 -5 -3 -2 6 -2 -1 -0 -2 -1 1 -1 0 -0 -2 2 -2 -0 -0 -2 1 -3 -2 3 0 -2
-1 -1 3 -0 -2 -2 -1 -1 1 -2 1 2 1 -1 -4 2 1 -0 4 3 3 2 -0 -3 -1 0 3 -0 -1 2 -2 1 -1 4 -3 3 3 8
2 3 -2 -1 -1 1 -5 -3 -1 3 2 3 2 -1 -1 -0 -2 4 2 1 1 -1 -1 -1 4 -5 2 2 -1 2 1 -2 -2 1 1 7 -3 1
-1 -4 -0 -2 -3 2 -0 3 -2 -0 1 -2 -0 -0 -2 -1 1 1 0 1 0 -1 -2 -3 -1 1 0 0 -0 -1 2 1 -1 -2 -1 -1 4 4
-0 0 -2 2 4 6 -2 -4 3 -1 -1 0 2 -2 -1 0 -3 -1 2 3 1 -0 -1 -1 -1 -0 1 -2 5 -6 2 2 0 -2 -2 -1 -0 -1
-3 -2 4 4 -2 -9 -4 -0 2 -1 -1 -1 -4 -1 -0 -3 -1 2 3 1 -0 -3 2 2 2 -3 -1 1 1 -2 -2 3 0 -1 -0 -1 -0 1
3 1 -6 -5 -0 2 1 -1 2 0 0 -0 1 -1 1 0 3 2 0 -1 1 -1 -0 -3 2 2 -0 -1 -0 -1 -2 2 -1 -0 0 -1 -0 1
-2 -4 1 3 0 -1 -0 -2 -1 -2 -2 -2 -1 0 0 2 2 2 -0 -1 1 -0 1 -2 0 -1 1 -2 -1 -1 -0 0 -2 -1 0 -0 0 -1
2 1 2 -1 -3 2 -1 2 -2 -0 -1 -0 -1 1 0 -1 -2 0 -2 1 -1 1 -1 -0 0 -1 -0 0 -1 1 -1 -1 -1 -1 0 -0 -1 -0
-0 -2 9 -3 -3 -1 -1 -1 -4 -1 3 1 -0 -1 0 -0 0 -0 0 3 -0 1 0 0 -1 1 -1 -0 0 -1 -1 -1 -0 -1 -1 -0 1 -0
-2 -6 2 1 2 -4 -0 -0 2 3 1 1 -0 -1 -1 -0 -0 1 0 -0 1 1 1 1 0 1 -1 2 -1 -1 -1 -1 -1 -1 -1 -2 -0 -2
-3 -0 -0 1 4 1 -1 2 1 -1 1 0 -0 0 -2 0 -1 -0 0 1 1 1 -2 -0 -1 2 -0 1 1 -0 -0 -0 -1 -1 -0 -0 0 1
3 -0 -0 -2 3 4 1 1 -1 -1 1 -1 -0 -1 0 -1 1 -1 1 -1 -1 -1 0 -1 0 -0 0 -0 1 -1 -1 -2 -2 -1 -1 -2 -1 -1
0 1 1 -0 -1 4 3 -0 -1 -1 -0 0 -1 0 -1 -0 -1 1 -1 0 -0 0 -0 -0 -1 0 0 -1 1 0 -1 -2 -1 -1 -1 -1 -0 -0
1 1 3 -1 -3 1 2 0 -1 -2 -1 -1 -1 -1 -1 1 -1 -0 -1 -2 -0 -1 -1 -1 -1 -1 -1 -0 -1 -0 -1 -2 -1 -1 -0 0 -0 -0
1 3 -1 -1 -1 0 0 0 -2 -1 -1 0 -0 0 -0 0 -1 0 -1 -1 -1 -1 -1 -2 -1 -1 -0 0 -1 -0 -1 -0 -1 -1 -1 -2 -1 0
-5 1 -0 -1 0 -0 0 1 -1 0 2 1 -1 -0 1 0 -1 0 -0 -1 -2 -1 -1 -1 -1 0 -0 -1 -1 -1 -1 -1 -1 -1 -2 -2 -1 2
1 -2 -2 0 -1 -0 1 0 2 1 -0 -1 -2 -0 0 1 0 -0 -2 -1 0 -0 -2 -2 -2 -0 -0 -1 0 -1 -1 -2 -2 -2 -4 -4 -4 2
-0 -2 -2 1 -0 2 1 1 1 0 1 0 0 -0 -0 -1 -1 -0 -0 0 1 -0 -2 -3 2 0 -3 0 -2 0 1 -0 -2 -1 -1 -3 -3 -4
1 -2 -2 1 2 2 1 2 0 0 -1 -1 -1 1 -0 -0 -1 0 -1 -2 -1 0 1 -0 -1 -1 -0 -0 1 2 0 -4 1 -1 -1 -1 -1 -9
-1 1 -1 2 2 3 1 -1 -2 -1 -1 1 1 1 1 -1 1 -2 -0 0 1 0 0 -0 -0 0 -0 -0 2 2 1 -1 -0 -2 -2 -1 0 -4
Height
1505 1510 1512 1511 1511 1511 1510 1510 1513 1511 1509 1508 1507 1508 1507 1505 1506 1509 1508 1507 1508 1506 1507 1507 1506 1503 1502 1502 1503 1503 1504 1502 1502 1502 1503 1505 1508 1511
1502 1504 1505 1504 1503 1503 1504 1506 1504 1505 1503 1501 1503 1501 1505 1502 1501 1503 1503 1502 1503 1503 1503 1503 1501 1501 1499 1501 1500 1501 1501 1501 1500 1500 1500 1500 1503 1507
1497 1499 1500 1498 1497 1497 1497 1498 1499 1500 1496 1497 1497 1497 1499 1498 1496 1497 1499 1498 1499 1499 1499 1498 1497 1497 1497 1497 1497 1498 1498 1499 1499 1499 1499 1498 1500 1502
1492 1492 1494 1492 1492 1492 1492 1493 1492 1492 1493 1493 1493 1492 1494 1495 1493 1493 1493 1494 1494 1494 1495 1494 1493 1493 1494 1494 1494 1495 1495 1496 1498 1499 1499 1499 1499 1501
1486 1485 1487 1486 1486 1484 1485 1487 1486 1485 1488 1489 1487 1488 1489 1491 1490 1490 1488 1490 1492 1490 1491 1490 1491 1490 1491 1491 1492 1492 1492 1493 1496 1497 1498 1499 1499 1502
1480 1480 1482 1481 1480 1479 1479 1476 1479 1479 1481 1484 1485 1483 1487 1486 1485 1485 1487 1487 1487 1487 1488 1488 1488 1488 1489 1490 1488 1489 1489 1491 1493 1495 1497 1498 1499 1501
1474 1474 1474 1476 1472 1470 1471 1472 1474 1473 1476 1478 1478 1480 1481 1481 1478 1482 1483 1483 1483 1485 1485 1484 1485 1485 1485 1486 1485 1486 1487 1488 1489 1491 1494 1496 1498 1500
1468 1471 1468 1467 1466 1467 1468 1468 1468 1470 1470 1472 1474 1475 1474 1476 1477 1478 1478 1479 1480 1480 1481 1481 1482 1482 1483 1483 1482 1483 1485 1485 1486 1489 1491 1493 1496 1497
1462 1461 1460 1462 1463 1462 1462 1464 1465 1465 1466 1469 1467 1468 1470 1472 1473 1473 1474 1477 1478 1478 1478 1478 1479 1478 1479 1480 1481 1481 1482 1483 1484 1486 1488 1490 1492 1494
1454 1455 1456 1455 1456 1456 1457 1459 1461 1463 1461 1463 1463 1464 1465 1467 1469 1470 1471 1473 1474 1474 1475 1475 1476 1476 1477 1478 1479 1480 1481 1482 1483 1484 1485 1487 1489 1491
1451 1449 1447 1447 1449 1450 1455 1456 1457 1459 1458 1457 1458 1459 1460 1462 1464 1465 1467 1470 1470 1470 1471 1472 1472 1473 1475 1476 1477 1478 1480 1481 1482 1484 1485 1486 1488 1489
1444 1443 1442 1442 1446 1447 1451 1451 1453 1455 1454 1453 1454 1455 1456 1458 1460 1462 1464 1466 1467 1468 1468 1470 1470 1472 1473 1473 1474 1476 1478 1480 1481 1483 1484 1486 1487 1488
1436 1439 1440 1440 1440 1442 1445 1447 1449 1449 1450 1450 1450 1452 1454 1456 1457 1459 1460 1462 1463 1465 1466 1467 1468 1470 1471 1471 1472 1474 1476 1478 1479 1481 1482 1484 1485 1486
1433 1434 1434 1436 1436 1438 1440 1442 1443 1445 1446 1447 1448 1450 1452 1453 1455 1456 1458 1459 1461 1463 1464 1466 1467 1468 1470 1471 1471 1472 1473 1475 1477 1478 1479 1481 1482 1483
1427 1426 1428 1431 1434 1434 1435 1437 1438 1441 1441 1443 1445 1447 1449 1450 1452 1454 1456 1458 1459 1460 1462 1463 1465 1466 1468 1469 1469 1470 1471 1472 1473 1474 1475 1476 1477 1478
1421 1422 1423 1425 1429 1430 1430 1432 1434 1436 1438 1440 1442 1444 1446 1447 1449 1451 1453 1455 1457 1459 1460 1462 1462 1463 1465 1466 1467 1467 1468 1470 1470 1470 1471 1472 1473 1473
1417 1417 1417 1418 1421 1424 1425 1427 1429 1432 1433 1435 1438 1440 1442 1444 1446 1449 1451 1453 1454 1456 1457 1459 1460 1460 1461 1462 1463 1464 1464 1465 1466 1466 1467 1468 1468 1468
1407 1408 1408 1412 1414 1417 1419 1421 1423 1426 1429 1431 1433 1436 1438 1440 1443 1445 1447 1449 1451 1452 1454 1455 1456 1457 1457 1459 1459 1460 1460 1461 1462 1462 1462 1462 1462 1463
1397 1399 1402 1405 1407 1410 1413 1416 1418 1422 1425 1427 1430 1432 1434 1436 1439 1441 1443 1445 1447 1448 1450 1451 1452 1453 1453 1454 1455 1455 1456 1457 1457 1458 1458 1459 1458 1457
1388 1390 1395 1398 1400 1403 1407 1410 1413 1416 1419 1421 1424 1427 1430 1432 1435 1437 1439 1441 1442 1444 1445 1447 1448 1448 1449 1450 1450 1451 1452 1453 1453 1454 1454 1454 1453 1452
1380 1382 1387 1390 1392 1396 1400 1403 1407 1410 1413 1416 1419 1422 1425 1427 1430 1433 1434 1436 1438 1439 1440 1442 1443 1444 1444 1444 1445 1446 1447 1447 1448 1448 1448 1447 1446 1445
1372 1375 1378 1381 1385 1388 1393 1397 1401 1404 1407 1410 1413 1417 1419 1422 1425 1427 1429 1430 1432 1434 1436 1437 1438 1438 1439 1439 1440 1441 1441 1441 1442 1442 1442 1442 1441 1439
1363 1367 1369 1373 1376 1381 1385 1389 1393 1397 1401 1404 1408 1411 1414 1416 1419 1421 1423 1425 1427 1428 1430 1432 1432 1433 1434 1434 1435 1435 1435 1436 1435 1435 1434 1434 1434 1432